This demonstration page uses our WeatherBlox Daily Observations layout. Learn more.

Left ArrowRight Arrow

Hourly Observations for May 25, 2022

Temp ( °F °C ) Dew Point ( °F °C ) Humidity (%) Winds ( mph kmh ) Pressure ( in mb ) Visibility ( mi km ) Precip ( " mm )
12:28 am 00:28 Cloudy with Rain 51 10.6 49 9.4 92 92 NNE 12 19 29.88 1012 3 4 0.03 0.76
12:51 am 00:51 Cloudy with Light Rain 52 11 48 9 88 88 NNE 10 17 29.88 1012 4 6 0.10 2.54
12:54 am 00:54 Cloudy with Light Rain 51 10.6 49 9.4 92 92 NNE 10 17 29.86 1011 3 5 0.10 2.54
1:02 am 01:02 Cloudy with Light Rain 51 10.6 49 9.4 92 92 NNE 9 15 29.87 1011 2 3 0.00 0.00
1:22 am 01:22 Cloudy with Light Rain 51 10.6 49 9.4 92 92 NNE 10 17 29.86 1011 2 3 0.03 0.76
1:54 am 01:54 Cloudy with Light Rain 52 11.1 50 10 93 93 NE 13 20 29.83 1010 3 4 0.06 1.52
2:04 am 02:04 Cloudy with Light Rain 52 11.1 50 10 93 93 NE 10 17 29.84 1010 3 5 0.00 0.00
2:44 am 02:44 Cloudy with Light Rain 52 11.1 50 10 93 93 NNE 10 17 29.82 1010 3 4 0.01 0.25
2:54 am 02:54 Cloudy with Light Rain 52 11.1 50 10 93 93 NNE 10 17 29.81 1010 3 4 0.01 0.25
3:15 am 03:15 Cloudy with Light Rain 52 11.1 51 10.6 97 97 NNE 10 17 29.83 1010 3 5 0.01 0.25
3:34 am 03:34 Cloudy with Light Rain 52 11.1 51 10.6 97 97 NNE 10 17 29.83 1010 3 4 0.01 0.25
3:54 am 03:54 Cloudy with Light Rain 52 11.1 51 10.6 97 97 NNE 10 17 29.81 1010 3 5 0.02 0.51
4:05 am 04:05 Cloudy with Light Rain 52 11.1 51 10.6 97 97 NNE 9 15 29.82 1010 3 5 0.01 0.25
4:54 am 04:54 Cloudy with Light Rain 52 11.1 50 10 93 93 NNE 13 20 29.79 1009 6 10 0.03 0.76
5:54 am 05:54 Cloudy with Mist and Fog 52 11.1 50 10 93 93 NNE 10 17 29.81 1009 4 6 0.00 0.00
6:05 am 06:05 Cloudy with Mist and Fog 52 11.1 50 10 93 93 NNE 10 17 29.82 1010 3 5 0.00 0.00
6:36 am 06:36 Cloudy with Mist and Fog 52 11.1 50 10 93 93 NNE 12 19 29.85 1011 3 4 0.00 0.00
6:46 am 06:46 Cloudy with Light Rain 52 11.1 50 10 93 93 NNE 12 19 29.85 1011 2 3 0.00 0.00
6:54 am 06:54 Cloudy with Light Rain 51 10.6 50 10 96 96 NNE 14 22 29.84 1011 1 2 0.00 0.00
7:54 am 07:54 Cloudy with Light Rain 51 10.6 49 9.4 92 92 NNE 16 26 29.84 1011 1 2 0.01 0.25
8:54 am 08:54 Cloudy with Mist and Fog 51 10.6 49 9.4 92 92 NNE 20 31 29.83 1010 3 4 0.00 0.00
9:19 am 09:19 Cloudy with Mist and Fog 51 10.6 49 9.4 92 92 N 18 30 29.83 1010 3 5 0.00 0.00
9:43 am 09:43 Cloudy with Mist and Fog 51 10.6 49 9.4 92 92 NNE 18 30 29.84 1010 3 5 0.00 0.00
9:54 am 09:54 Cloudy with Mist and Fog 51 10.6 48 8.9 89 89 NNE 18 30 29.83 1010 3 5 0.00 0.00
10:54 am 10:54 Cloudy with Light Rain 51 10.6 49 9.4 92 92 NNE 15 24 29.83 1010 7 11 0.01 0.25
11:54 am 11:54 Cloudy with Light Rain 51 10.6 49 9.4 92 92 NNE 20 31 29.83 1010 7 11 0.01 0.25
12:54 pm 12:54 Cloudy with Light Rain 53 11.7 50 10 89 89 N 16 26 29.81 1009 8 13 0.03 0.76
1:26 pm 13:26 Cloudy with Light Rain 53 11.7 50 10 89 89 N 18 30 29.80 1009 7 11 0.00 0.00
1:54 pm 13:54 Cloudy with Light Rain 53 11.7 50 10 89 89 N 20 31 29.79 1009 8 13 0.01 0.25
2:54 pm 14:54 Cloudy with Rain 53 11.7 50 10 89 89 N 18 30 29.78 1008 5 8 0.05 1.27
3:54 pm 15:54 Cloudy with Light Rain 53 11.7 50 10 89 89 N 18 30 29.75 1008 6 10 0.06 1.52
4:02 pm 16:02 Cloudy with Light Rain 53 11.7 50 10 89 89 N 20 31 29.76 1008 6 10 0.01 0.25
4:09 pm 16:09 Cloudy with Light Rain 53 11.7 50 10 89 89 N 20 31 29.76 1008 6 10 0.02 0.51
4:54 pm 16:54 Cloudy with Light Rain 53 11.7 50 10 89 89 N 22 35 29.74 1007 7 11 0.06 1.52
5:54 pm 17:54 Cloudy with Light Rain 53 11.7 50 10 89 89 N 22 35 29.72 1006 8 13 0.03 0.76
6:54 pm 18:54 Cloudy with Light Rain 52 11.1 49 9.4 89 89 N 23 37 29.72 1006 7 11 0.03 0.76
7:14 pm 19:14 Cloudy with Rain 52 11.1 49 9.4 89 89 N 18 30 29.73 1007 5 8 0.03 0.76
7:23 pm 19:23 Cloudy with Rain 52 11.1 49 9.4 89 89 N 22 35 29.73 1007 4 6 0.05 1.27
7:54 pm 19:54 Cloudy with Light Rain 52 11.1 48 8.9 86 86 N 25 41 29.73 1007 6 10 0.10 2.54
8:54 pm 20:54 Cloudy with Rain 51 10.6 48 8.9 89 89 N 18 30 29.74 1007 6 10 0.11 2.79
9:36 pm 21:36 Cloudy with Heavy Rain 51 10.6 48 8.9 89 89 N 21 33 29.76 1008 3 4 0.11 2.79
9:54 pm 21:54 Cloudy with Rain 51 10.6 48 8.9 89 89 NNE 16 26 29.77 1008 3 5 0.21 5.33
10:10 pm 22:10 Cloudy with Heavy Rain 51 10.6 48 8.9 89 89 NNE 20 31 29.80 1009 3 4 0.03 0.76
10:21 pm 22:21 Cloudy with Heavy Rain 51 10.6 48 8.9 89 89 NNE 16 26 29.80 1009 2 3 0.14 3.56
10:28 pm 22:28 Cloudy with Heavy Rain 51 10.6 48 8.9 89 89 NNE 18 30 29.80 1009 2 3 0.18 4.57

Powered by AerisWeather